Wind_Speed
13 13 14 14 15 15 16 16 17 18 19 19 20 20 21 22 23 24 24 24 24 25 26 26 27 27 26 26 27 27 28 28 28 28 28 29 30 30
13 14 14 15 15 16 16 16 17 18 18 19 20 20 21 22 22 24 25 24 24 25 25 26 26 26 26 26 27 27 28 28 29 29 30 30 31 32
14 14 15 16 16 16 16 17 17 18 19 20 21 21 21 23 24 24 25 25 25 26 26 27 27 26 26 27 27 28 28 29 30 31 31 31 32 32
15 15 16 16 16 16 17 17 18 18 19 20 21 22 22 23 23 23 24 25 26 27 28 28 27 26 26 27 28 29 29 30 31 31 32 33 33 33
16 16 17 17 17 18 18 18 18 19 20 20 21 22 22 22 22 23 24 25 26 26 26 26 26 26 27 28 29 30 30 31 31 32 33 34 35 35
17 17 17 18 19 19 19 19 19 19 20 20 21 22 22 21 22 23 24 25 26 26 26 27 27 27 28 29 30 30 30 31 32 33 34 35 36 37
17 17 18 18 19 19 19 20 20 21 20 20 20 21 21 22 22 22 23 24 25 25 26 26 26 27 27 29 30 30 31 32 33 33 34 34 35 36
18 18 18 18 18 19 19 19 19 19 20 20 21 21 22 21 21 22 23 24 24 25 27 28 28 28 28 29 30 31 31 32 32 33 34 34 34 35
19 18 18 19 19 19 20 20 19 19 19 19 20 21 21 22 22 23 24 25 25 26 27 27 28 29 29 30 31 32 32 32 32 33 33 34 34 34
19 19 19 19 19 20 20 20 19 19 19 20 21 21 22 22 22 23 24 25 26 27 27 28 28 29 29 30 31 31 31 31 32 33 33 33 34 34
19 19 19 20 20 20 20 20 20 20 20 21 21 22 22 23 23 24 25 26 27 27 28 29 29 29 30 31 31 32 32 33 33 33 33 33 34 34
20 20 20 20 20 20 20 20 20 20 21 22 22 23 24 24 25 25 26 27 28 28 29 30 30 31 31 31 31 32 33 33 32 33 33 33 33 33
21 21 20 20 20 21 20 20 21 22 22 23 24 25 25 26 27 27 28 28 29 29 30 30 31 31 31 31 32 32 33 33 33 33 33 33 33 33
21 21 21 21 21 21 22 22 22 23 23 24 24 25 26 27 27 28 29 29 30 30 31 31 32 32 32 32 32 32 32 32 32 32 32 32 32 32
22 22 22 23 23 22 22 23 23 23 23 24 25 26 27 27 28 29 29 30 31 31 31 32 32 32 32 32 31 31 31 31 32 32 32 32 32 32
24 24 23 23 23 23 23 23 23 23 24 25 26 26 27 28 29 29 30 30 31 31 32 32 32 32 32 32 33 32 32 32 32 32 32 32 31 31
25 25 23 23 23 23 23 24 24 25 25 26 27 28 28 29 29 30 30 31 31 31 32 32 33 33 33 33 33 33 33 32 32 32 32 31 30 30
25 24 23 23 24 24 24 25 25 26 27 27 28 28 29 30 30 31 31 32 32 32 32 32 32 32 33 33 32 32 32 32 31 31 30 29 28 28
24 24 24 24 25 25 25 26 26 27 28 28 28 29 30 30 30 31 31 31 31 32 32 32 32 32 32 32 32 32 32 31 31 30 30 29 28 28
24 24 25 25 26 26 27 27 27 27 28 28 29 30 30 31 31 31 31 31 32 32 32 32 32 32 32 32 31 31 30 30 30 29 29 28 28 28
25 25 25 26 26 27 27 27 27 28 28 29 29 30 31 31 31 31 31 31 32 32 32 32 32 32 32 31 31 30 30 30 30 30 30 29 29 28
26 26 27 27 27 27 27 28 28 29 29 30 30 30 30 30 30 30 30 30 31 32 32 32 32 31 31 31 31 30 30 30 29 29 29 28 27 27
28 28 28 29 28 28 29 29 29 29 29 30 30 30 30 30 30 30 30 31 31 31 31 31 31 31 30 31 30 30 29 29 29 29 28 27 27 27
Wind_Direction
293 290 289 288 286 285 284 283 281 278 275 273 273 271 269 272 273 271 271 274 274 271 271 270 270 270 271 271 271 271 272 272 272 272 272 272 271 273
297 293 289 287 287 287 286 285 283 281 279 277 278 277 275 274 273 272 271 272 272 274 273 272 273 272 271 270 270 271 272 272 272 272 273 273 272 273
298 295 294 292 292 291 288 287 285 283 282 281 280 278 276 277 276 275 274 274 275 274 274 274 275 274 272 271 272 273 273 273 274 274 274 274 273 273
299 298 297 295 295 294 293 290 288 285 283 281 280 279 279 278 277 275 275 277 275 274 276 276 275 275 275 274 273 273 273 274 275 275 275 275 275 275
302 301 301 298 296 293 293 294 293 288 284 283 283 283 282 279 277 277 276 276 275 276 277 277 276 277 276 276 276 275 274 275 275 276 276 276 276 276
305 305 303 300 298 294 294 294 293 292 289 287 287 285 283 282 281 280 280 280 280 279 280 280 279 278 277 277 277 277 278 278 277 277 277 277 276 276
304 302 301 301 299 296 294 294 293 292 290 290 290 289 288 286 285 283 284 284 284 283 282 284 282 281 281 280 279 278 279 279 279 278 277 277 277 277
305 303 301 300 300 300 299 297 296 296 293 290 290 290 289 287 286 286 286 286 286 285 285 285 284 284 283 283 282 282 282 281 281 280 279 279 279 278
307 304 302 303 302 301 301 300 299 298 298 296 294 293 292 291 289 288 288 289 288 288 288 287 286 285 284 284 283 283 283 283 283 283 282 282 280 279
307 306 305 305 304 303 302 300 297 296 295 295 295 296 296 295 294 293 292 291 291 289 288 288 287 287 286 286 286 286 286 286 285 285 285 283 282 281
308 306 305 305 305 303 301 300 297 295 294 295 295 296 296 296 294 293 292 292 292 292 291 290 288 287 287 287 287 287 287 287 287 286 285 284 284 283
306 305 305 305 305 303 301 299 298 296 295 296 297 297 297 296 294 294 294 293 292 291 290 289 288 288 288 288 288 288 289 289 288 287 286 285 285 284
305 305 305 305 304 304 303 301 300 298 297 296 297 298 298 298 296 295 295 294 293 292 291 290 290 290 290 291 290 290 289 290 290 288 286 286 286 285
304 303 302 302 303 302 302 302 300 299 298 298 299 300 300 299 298 296 295 295 294 293 291 290 290 290 290 291 292 292 291 291 290 289 287 287 287 285
301 300 300 300 301 301 302 302 301 301 301 301 300 299 299 299 299 297 296 296 295 294 292 291 291 291 291 292 293 293 293 292 291 290 289 289 287 285
299 299 300 301 301 301 302 303 303 303 302 301 301 300 300 299 298 297 297 298 297 296 295 293 291 291 292 292 292 293 293 293 292 290 290 290 289 287
299 299 299 301 301 302 302 302 303 303 301 301 301 301 301 300 299 297 297 297 297 297 296 294 293 292 292 293 293 293 294 293 292 290 289 289 289 287
299 299 300 302 302 301 301 301 301 302 302 302 302 302 301 301 300 299 299 299 299 298 296 295 294 293 294 293 293 293 294 294 294 292 291 290 289 289
297 299 300 300 300 300 300 301 302 303 303 303 303 303 302 301 301 300 300 299 299 299 297 297 296 295 294 294 294 295 294 294 294 293 292 290 288 288
296 298 298 298 299 299 300 301 301 302 303 303 303 303 303 302 302 301 300 299 299 298 298 297 297 296 296 295 295 296 295 294 293 292 291 291 288 288
296 297 296 297 298 299 299 301 301 302 303 304 305 305 305 304 303 302 301 299 298 298 297 297 296 296 296 296 297 297 295 294 293 293 291 289 287 286
295 296 297 298 297 298 300 301 302 303 303 304 304 305 305 304 304 303 302 300 299 299 299 298 297 297 297 296 297 296 296 295 293 293 292 289 287 286
294 295 296 296 296 298 299 300 302 303 304 304 303 304 304 304 305 304 303 303 303 301 300 300 299 298 297 297 297 296 296 296 294 293 292 291 289 287
Height
5857 5856 5854 5853 5852 5851 5850 5848 5848 5846 5845 5844 5843 5842 5841 5840 5839 5838 5838 5837 5836 5835 5834 5833 5833 5832 5831 5830 5829 5829 5828 5827 5826 5825 5824 5823 5822 5822
5853 5852 5850 5849 5848 5846 5845 5843 5842 5841 5840 5839 5837 5836 5835 5834 5833 5832 5831 5830 5829 5828 5828 5826 5826 5825 5824 5823 5822 5821 5820 5820 5819 5818 5817 5815 5814 5813
5849 5847 5846 5845 5843 5841 5840 5838 5837 5835 5834 5833 5832 5831 5829 5828 5827 5826 5825 5824 5823 5822 5821 5819 5818 5817 5816 5815 5814 5813 5812 5812 5811 5810 5808 5807 5806 5805
5845 5843 5841 5840 5838 5837 5835 5833 5831 5830 5828 5827 5826 5825 5823 5822 5821 5820 5818 5817 5816 5814 5813 5812 5811 5810 5809 5808 5807 5806 5805 5804 5802 5801 5800 5798 5797 5795
5840 5838 5837 5835 5834 5832 5830 5828 5826 5824 5822 5821 5820 5818 5817 5816 5814 5813 5812 5811 5809 5807 5806 5805 5803 5802 5801 5800 5799 5798 5797 5795 5794 5792 5790 5789 5787 5786
5836 5834 5832 5830 5829 5827 5825 5823 5821 5819 5817 5816 5814 5812 5811 5809 5808 5807 5805 5804 5802 5800 5799 5797 5796 5795 5793 5792 5791 5789 5788 5786 5784 5782 5780 5779 5777 5776
5831 5829 5827 5825 5823 5821 5819 5817 5815 5814 5812 5810 5808 5806 5804 5803 5801 5800 5799 5797 5795 5793 5792 5790 5788 5787 5785 5783 5782 5780 5779 5777 5775 5773 5771 5769 5767 5765
5826 5824 5822 5820 5818 5816 5814 5812 5810 5808 5806 5804 5802 5800 5798 5796 5795 5793 5792 5791 5789 5787 5785 5783 5781 5779 5777 5775 5773 5772 5770 5767 5765 5763 5761 5759 5757 5755
5821 5819 5817 5814 5812 5810 5808 5806 5804 5802 5801 5799 5797 5794 5792 5790 5789 5787 5785 5783 5782 5780 5777 5775 5773 5771 5769 5766 5764 5762 5760 5758 5756 5753 5751 5748 5746 5744
5816 5814 5811 5809 5807 5805 5803 5801 5799 5797 5795 5793 5791 5789 5786 5784 5782 5780 5778 5776 5774 5772 5770 5768 5765 5763 5761 5758 5755 5753 5751 5748 5746 5743 5741 5738 5736 5734
5811 5808 5806 5803 5801 5799 5797 5795 5793 5791 5788 5786 5784 5782 5780 5778 5775 5773 5771 5769 5767 5764 5762 5760 5757 5754 5752 5749 5746 5743 5741 5738 5736 5733 5731 5728 5726 5724
5805 5803 5800 5798 5795 5793 5791 5788 5786 5784 5782 5780 5778 5775 5773 5771 5768 5766 5763 5761 5759 5756 5754 5751 5748 5745 5743 5740 5737 5734 5731 5728 5726 5723 5721 5718 5716 5714
5800 5797 5795 5792 5789 5787 5784 5782 5780 5778 5776 5773 5771 5769 5766 5763 5761 5758 5755 5753 5750 5748 5745 5742 5739 5736 5733 5731 5728 5725 5722 5719 5716 5713 5711 5708 5706 5704
5794 5791 5789 5786 5784 5781 5779 5776 5774 5771 5769 5766 5764 5761 5759 5756 5753 5750 5747 5745 5742 5739 5736 5733 5730 5727 5724 5721 5718 5715 5712 5709 5707 5704 5701 5699 5696 5694
5787 5785 5782 5780 5777 5775 5772 5770 5767 5764 5762 5759 5756 5754 5751 5748 5745 5742 5738 5735 5733 5730 5727 5724 5721 5718 5715 5712 5709 5706 5703 5700 5697 5694 5692 5689 5686 5684
5780 5778 5775 5773 5771 5768 5765 5763 5760 5758 5755 5752 5749 5746 5743 5739 5736 5733 5730 5727 5724 5720 5717 5714 5711 5708 5705 5702 5699 5696 5693 5690 5687 5684 5682 5679 5676 5674
5773 5771 5768 5766 5764 5761 5759 5756 5753 5750 5747 5744 5741 5738 5734 5731 5728 5724 5721 5717 5714 5711 5708 5704 5701 5698 5695 5693 5689 5686 5683 5680 5677 5675 5672 5670 5667 5665
5766 5764 5761 5759 5757 5754 5752 5749 5746 5743 5739 5736 5733 5730 5726 5723 5719 5716 5712 5708 5705 5702 5698 5695 5692 5689 5686 5682 5680 5677 5674 5671 5668 5665 5662 5660 5658 5656
5759 5757 5754 5752 5749 5747 5744 5741 5738 5735 5731 5728 5725 5721 5718 5714 5711 5707 5703 5699 5696 5692 5689 5685 5682 5679 5676 5673 5670 5667 5664 5661 5658 5655 5653 5651 5649 5647
5751 5749 5747 5744 5742 5739 5736 5733 5730 5727 5723 5720 5716 5713 5709 5705 5701 5698 5694 5691 5687 5683 5679 5676 5673 5670 5667 5664 5661 5657 5654 5651 5649 5646 5644 5642 5640 5638
5745 5742 5739 5736 5734 5731 5728 5725 5722 5718 5715 5711 5708 5704 5700 5696 5692 5689 5685 5681 5678 5674 5671 5667 5663 5660 5657 5654 5651 5648 5645 5642 5640 5637 5635 5633 5631 5629
5737 5734 5731 5728 5726 5723 5720 5717 5713 5710 5707 5703 5699 5696 5692 5688 5684 5680 5676 5673 5669 5665 5661 5658 5654 5651 5648 5645 5642 5639 5636 5633 5630 5628 5625 5623 5622 5620
5729 5726 5723 5721 5718 5715 5711 5708 5705 5702 5698 5695 5691 5687 5683 5679 5676 5672 5668 5664 5660 5656 5652 5649 5645 5642 5639 5636 5633 5630 5627 5624 5621 5619 5617 5614 5613 5611